Regional Weather Roundup
Issued by NWS

Home | Current Version | Previous Version | Graphics & Text | Print | Product List | Glossary On
Versions: 1 2 3 4 5 6 7 8 9 10 11 12 13 14 15 16 17 18 19 20 21 22 23 24 25 26 27 28 29 30 31 32 33 34 35 36 37 38 39 40 41 42 43 44 45 46 47 48 49 50
074
ASUS43 KLSX 232357
RWRMO

WEATHER SUMMARY FOR MISSOURI
NATIONAL WEATHER SERVICE SPRINGFIELD MO
700 PM CDT MON MAY 23 2016

NOTE: "FAIR" INDICATES FEW OR NO CLOUDS BELOW 12,000 FEET WITH NO
       SIGNIFICANT WEATHER AND/OR OBSTRUCTIONS TO VISIBILITY.
       CURRENT SKY AND/OR WEATHER CONDITIONS ARE NOT AVAILABLE FOR
       CHILLICOTHE AND FARMINGTON.

MOZ001>031-035>038-043-044-053-054-240100-
...NORTHERN AND WESTERN MISSOURI...

CITY           SKY/WX    TMP DP  RH WIND       PRES   REMARKS
KANSAS CTY INT PTSUNNY   70  62  76 SE8       29.82S
6HR MIN TEMP:  63; 6HR MAX TEMP:  71; 6HR PCP:  0.49;

LEE`S SUMMIT   CLOUDY    72  61  68 W7        29.85R
6HR MIN TEMP:  67; 6HR MAX TEMP:  74; 6HR PCP: TRACE;

ST JOSEPH      CLOUDY    70  63  78 SE8       29.82R
6HR MIN TEMP:  64; 6HR MAX TEMP:  71; 6HR PCP:  0.29;

CHILLICOTHE      N/A     77  63  61 S3        29.84S
6HR MIN TEMP:  75; 6HR MAX TEMP:  80;


$$
MOZ066>068-077>081-088>096-101>105-240100-
...SOUTHWEST MISSOURI...

CITY           SKY/WX    TMP DP  RH WIND       PRES   REMARKS
SPRINGFIELD    LGT RAIN  66  63  90 SE10      29.89F
6HR MIN TEMP:  65; 6HR MAX TEMP:  79; 6HR PCP:  0.23;

JOPLIN         LGT RAIN  67  63  87 SE13G22   29.88R
6HR MIN TEMP:  67; 6HR MAX TEMP:  76; 6HR PCP:  0.02;

BRANSON        LGT RAIN  64  64 100 NE3       29.93F FOG

$$
MOZ032>034-039>042-045>050-055>058-069>072-240100-
...CENTRAL MISSOURI...

CITY           SKY/WX    TMP DP  RH WIND       PRES   REMARKS
COLUMBIA       NOT AVBL
JEFFERSON CITY PTSUNNY   78  56  46 SE7       29.88F
6HR MIN TEMP:  78; 6HR MAX TEMP:  81;

ROLLA          PTSUNNY   73  56  54 S8        29.92S
6HR MIN TEMP:  72; 6HR MAX TEMP:  77;

SEDALIA        CLOUDY    74  64  71 S7        29.86F
6HR MIN TEMP:  74; 6HR MAX TEMP:  81;

WARRENSBURG    CLOUDY    72  59  64 SE17G23   29.78F

$$
MOZ051-052-059>065-240100-
...EAST CENTRAL MISSOURI...

CITY           SKY/WX    TMP DP  RH WIND       PRES   REMARKS
ST LOUIS INTL  CLOUDY    80  50  34 S8        29.92F
6HR MIN TEMP:  80; 6HR MAX TEMP:  85;


$$
MOZ072>076-082>087-097>100-106>115-240100-
...SOUTH CENTRAL AND SOUTHEAST MISSOURI...

CITY           SKY/WX    TMP DP  RH WIND       PRES   REMARKS
CAPE GIRARDEAU CLOUDY    78  55  44 N6        29.93S
6HR MIN TEMP:  77; 6HR MAX TEMP:  83;

POPLAR BLUFF   PTSUNNY   77  60  55 CALM      29.92S
6HR MIN TEMP:  77; 6HR MAX TEMP:  82;

WEST PLAINS    PTSUNNY   74  56  53 S6        29.96F
6HR MIN TEMP:  74; 6HR MAX TEMP:  79;


$$



USA.gov is the U.S. government's official web portal to all federal, state and local government web resources and services.